sat.trackr.live / text

‹ back to catalog

2024-199AU

NORAD 61777 · 2024-199AU

PAYLOAD ACTIVE UNKNOWN

§ Identity

Operator
Country
TBD
Launch date
2024-11-04
Launch site
VOSTO
Launch vehicle
Mass (kg)
RCS (m²)

External: N2YO · Heavens-Above · Gunter

§ Orbital elements

Epoch: 2026-05-25T04:33:37.151712Z

Period
93.22 min
Inclination
97.3026°
Eccentricity
0.0014767
Mean motion
15.44661000 rev/d
Perigee alt
422.3 km
Apogee alt
442.4 km
Semi-major
6,810.5 km
B*
3.8156e-4
RAAN
17.6118°
Arg perigee
11.1111°
Mean anomaly
349.0460°
Rev number
13,063

§ Raw data

2024-199AU1 61777U 24199AU  26145.19001333  .00017783  00000+0  38156-3 0  99922 61777  97.3026  17.6118 0014767  11.1111 349.0460 15.44661000130638

JSON: /api/v1/satellites/61777 · /tle

For live sub-satellite position, see the globe view (requires WebGL).

§ Visibility from observer

Set your observer location to see the next 7 days of passes ≥ 10°. The values pass through the URL so the page stays shareable.

No JS? Fill the form by hand. The geolocation button needs JavaScript.